Regional Weather Roundup
Issued by NWS

Home | Current Version | Previous Version | Graphics & Text | Print | Product List | Glossary On
Versions: 1 2 3 4 5 6 7 8 9 10 11 12 13 14 15 16 17 18 19 20 21 22 23 24 25 26 27 28 29 30 31 32 33 34 35 36 37 38 39 40 41 42 43 44 45 46 47 48 49 50
000
ASUS43 KDMX 251707
RWRIA

WEATHER ROUNDUP FOR IOWA
NATIONAL WEATHER SERVICE DES MOINES IA
1200 PM CDT FRI JUL 25 2014

NOTE: "FAIR" INDICATES FEW OR NO CLOUDS BELOW 12,000 FEET WITH NO
SIGNIFICANT WEATHER AND/OR OBSTRUCTIONS TO VISIBILITY.

* - THESE STATIONS ARE NOT NWS STATIONS...THUS NOT UNDER NWS
QUALITY CONTROL.  THEY ALSO DO NOT REPORT WEATHER SUCH
AS PRECIPITATION OR FOG.

IAZ001>003-012>014-020>022-031>034-043>046-251800-
   NORTHWEST IOWA

CITY           SKY/WX    TMP DP  RH WIND       PRES   REMARKS
CARROLL *      SUNNY     72  61  68 SE20G30   29.81S
CHEROKEE *     SUNNY     73  66  78 S15G21    29.79R
DENISON *      SUNNY     73  64  73 SE17G29   29.76F
LE MARS *      SUNNY     77  66  69 S15G22    29.77F
ORANGE CITY *  SUNNY     75  64  69 S14G21    29.79S
SHELDON *      SUNNY     75  66  73 S14       29.79S
SPENCER        MOSUNNY   76  64  66 S13G21    29.81R
STORM LAKE *   SUNNY     73  66  78 S17G31    29.79F
$$

IAZ055>058-069>071-079>083-090>094-251800-
   SOUTHWEST IOWA

CITY           SKY/WX    TMP DP  RH WIND       PRES   REMARKS
ATLANTIC *     PTSUNNY   75  64  69 SE14G24   29.81F
AUDUBON *      SUNNY     73  66  78 SE12G18   29.82F
CLARINDA *     SUNNY     81  72  74 SE9       29.82F HX  84
COUNCIL BLFS * SUNNY     81  73  78 SE15      29.77F HX  85
CRESTON *      PTSUNNY   72  64  78 SE15G25   29.86F
HARLAN  *      SUNNY     75  66  73 SE15G22   29.83F
LAMONI         PTSUNNY   72  62  71 SE10G22   29.89F
RED OAK *      SUNNY     81  70  69 SE13      29.81S HX  84
SHENANDOAH *   SUNNY     84  75  74 SE10      29.79F HX  92
$$

IAZ047>049-059>061-072>074-084-251800-
   CENTRAL IOWA

CITY           SKY/WX    TMP DP  RH WIND       PRES   REMARKS
AMES           PTSUNNY   72  63  73 S21G31    29.83F
ANKENY *       CLOUDY    70  63  78 S22G30    29.85F
CHARITON *     CLOUDY    68  61  77 SE24      29.89F
DES MOINES     CLOUDY    69  61  75 S21G31    29.87F
GRINNELL*      CLOUDY    70  63  78 S18G25    29.88F
KNOXVILLE *    CLOUDY    68  61  77 S18G29    29.87F
MARSHALLTOWN   SUNNY     74  66  76 S20G31    29.81F
PELLA *        CLOUDY    68  63  83 S18G29    29.89F
PERRY *        CLOUDY    70  63  78 SE18G26   29.82F
$$

IAZ004>006-015-016-023>025-035-036-251800-
   NORTH CENTRAL IOWA

CITY           SKY/WX    TMP DP  RH WIND       PRES   REMARKS
ALGONA *       CLOUDY    75  63  64 S16G28    29.84R
CLARION *      MOSUNNY   77  66  69 S25G37    29.80F
ESTHERVILLE    MOSUNNY   74  64  71 S18G29    29.82R
FORT DODGE *   MOSUNNY   73  63  68 S21G31    29.82R
MASON CITY     MOSUNNY   76  66  71 S21G28    29.85S
FOREST CITY *  MOSUNNY   77  68  73 S13G20    29.84S
IOWA FALLS *     N/A     75  64  69 S23       29.82F
$$

IAZ007>011-017>019-026>030-037>042-050>054-066-251800-
   NORTHEAST IOWA

CITY           SKY/WX    TMP DP  RH WIND       PRES   REMARKS
CEDAR RAPIDS   PTSUNNY   67  62  84 S20G35    29.87F
CHARLES CITY * PTSUNNY   72  64  78 S9G18     29.86S
CLINTON *      CLOUDY    63  59  88 SW17G28   29.90F
DECORAH *      CLOUDY    64  63  94 SW7       29.89F
DUBUQUE        CLOUDY    62  60  93 SW21G35   29.86R
MONTICELLO *   PTSUNNY   66  63  88 S22G32    29.87F
OELWEIN *      CLOUDY    68  64  88 S20       29.87F
WATERLOO       PTSUNNY   69  63  81 S17G24    29.85R
$$

IAZ064-065-067-068-078-251800-
   EAST CENTRAL IOWA

CITY           SKY/WX    TMP DP  RH WIND       PRES   REMARKS
DAVENPORT      CLOUDY    63  60  90 S21G32    29.91F
IOWA CITY      CLOUDY    67  67 100 S22G36    29.90F
MT. PLEASANT * LGT RAIN  63  61  94 S14G20    29.96F
MUSCATINE *    CLOUDY    66  63  88 S22G28    29.92F
QUAD CITIES    CLOUDY    64  63  96 S12G24    29.91F
$$

IAZ062-063-075>077-085>089-095>099-251800-
   SOUTHEAST IOWA

CITY           SKY/WX    TMP DP  RH WIND       PRES   REMARKS
BURLINGTON     LGT RAIN  62  61  96 S13       29.97F FOG
FAIRFIELD *    CLOUDY    64  63  94 S22G31    29.91F
FORT MADISON * LGT RAIN  64  63  94 S10       30.02F
KEOKUK *       CLOUDY    63  61  94 S13G20    30.03F FOG
OSKALOOSA *    PTSUNNY   68  64  88 S22G32    29.88F
CENTERVILLE *  CLOUDY    63  63 100 E16G24    29.97F
OTTUMWA        CLOUDY    67  63  87 S20G31    29.89F
WASHINGTON *   PTSUNNY   64  63  94 S23G31    29.92F
$$

ABBREVIATIONS USED IN REMARKS
   TC - TEMPERATURES IN CELSIUS
  WCI - WIND CHILL INDEX
   HX - HEAT INDEX
  VSB - VISIBILITY
$$



USA.gov is the U.S. government's official web portal to all federal, state and local government web resources and services.